Regional Weather Roundup
Issued by NWS

Home | Current Version | Previous Version | Graphics & Text | Print | Product List | Glossary Off
Versions: 1 2 3 4 5 6 7 8 9 10 11 12 13 14 15 16 17 18 19 20 21 22 23 24 25 26 27 28 29 30 31 32 33 34 35 36 37 38 39 40 41 42 43 44 45 46 47 48 49 50

000
ASUS43 KMPX 010510
RWRMN
WEATHER ROUNDUP FOR MINNESOTA
NATIONAL WEATHER SERVICE TWIN CITIES/CHANHASSEN MN
1200 AM CDT MON SEP 01 2014


NOTE: "FAIR" INDICATES FEW OR NO CLOUDS BELOW 12,000 FEET WITH NO
SIGNIFICANT WEATHER AND/OR OBSTRUCTIONS TO VISIBILITY. N/A MEANS
CURRENT SKY AND/OR WEATHER CONDITIONS ARE NOT AVAILABLE.

MNZ060>063-068>070-010600-
   Twin Cities Metro

CITY           SKY/WX    TMP DP  RH WIND       PRES   REMARKS
TWIN CITIES    LGT RAIN  66  65  96 N5        29.61F
ST PAUL        LGT RAIN  66  64  93 N3        29.62F
CRYSTAL        LGT RAIN  67  64  90 E3        29.60F
BLAINE         LGT RAIN  66  66 100 CALM      29.62F
LAKEVILLE      RAIN      63  63 100 CALM      29.64S
EDEN PRAIRIE   LGT RAIN  66  65  96 NE3       29.61F
SOUTH ST PAUL  LGT RAIN  66  64  93 CALM      29.63F
LAKE ELMO      LGT RAIN  64  64 100 CALM      29.64F
$$
MNZ001>005-007-008-013>017-022>024-027-028-010600-
   Northwest Minnesota

CITY           SKY/WX    TMP DP  RH WIND       PRES   REMARKS
BEMIDJI        CLOUDY    61  59  95 W6        29.63S
HALLOCK        CLOUDY    61  57  88 NW3       29.62S
ROSEAU         MOCLDY    63  57  82 W3        29.62S
WARROAD        CLOUDY    59  55  88 W6        29.62F
THIEF RVR FALL   N/A     57  55  94 CALM      29.65R VSB 1/2
CROOKSTON      MOCLDY    57  55  94 CALM      29.66R
FOSSTON        CLOUDY    55  55 100 CALM      29.66R
DETROIT LAKES  CLOUDY    63  61  94 W3        29.68S
MOORHEAD       CLOUDY    61  61 100 NW3       29.66F
PARK RAPIDS    CLOUDY    60  59  96 CALM      29.65R
MAHNOMEN       FAIR      57  57  97 W7        29.65R
$$
MNZ006-009>011-018-025>026-010600-
   North Central Minnesota

CITY           SKY/WX    TMP DP  RH WIND       PRES   REMARKS
BAUDETTE       CLOUDY    61  58  90 CALM      29.60S
FLAG ISLAND    CLOUDY    61  57  88 W14       29.57R
INTL FALLS     CLOUDY    63  60  90 W7        29.59R
WASKISH        CLOUDY    63  59  88 NW6       29.61F
BIG FORK       CLOUDY    63  61  94 CALM      29.63S
LONGVILLE      CLOUDY    63  63 100 W3        29.62F
GRAND RAPIDS   CLOUDY    64  61  88 CALM      29.63F
CRANE LAKE     CLOUDY    61  59  94 CALM      29.63R
ORR            CLOUDY    63  59  88 SE3       29.60R
COOK           CLOUDY    64  63  94 CALM      29.63S
WALKER         FAIR      62  60  94 CALM      29.64R
$$
MNZ012-019>021-037-010600-
   Northeast Minnesota

CITY           SKY/WX    TMP DP  RH WIND       PRES   REMARKS
DULUTH         CLOUDY    63  60  90 NW5       29.63F
ELY            MOCLDY    63  61  94 SW3       29.62F
HIBBING        CLOUDY    64  62  93 W5        29.63F
EVELETH          N/A    N/A N/A N/A CALM        N/A
DULUTH HARBOR  CLOUDY    64  63  94 CALM      29.61F
TWO HARBORS    DRIZZLE   63  57  82 CALM      29.60S
SILVER BAY     CLOUDY    61  61 100 CALM      29.61S
GRAND MARAIS     N/A     64  60  87 NE7       29.65S
G MARAIS ARPRT CLOUDY    61  57  88 SE3       29.68S
$$
MNZ029>031-032-039>041-046>048-054>057-064-010600-
   West Central Minnesota

CITY           SKY/WX    TMP DP  RH WIND       PRES   REMARKS
FERGUS FALLS   CLOUDY    63  61  94 W3        29.66F FOG
WHEATON        CLOUDY    61  59  94 CALM      29.69S
MORRIS         CLOUDY    64  63  94 W5        29.66F
ALEXANDRIA     CLOUDY    66  63  90 W6        29.68S
ELBOW LAKE     CLOUDY    64  63  98 W5        29.67S
WADENA         CLOUDY    63  63 100 W5        29.66R
GLENWOOD       CLOUDY    66  63  88 W5        29.67S
APPLETON       CLOUDY    64  61  88 W3        29.67S
BENSON         CLOUDY    64  64 100 NW3       29.66F
ORTONVILLE     CLOUDY    64  61  88 CALM      29.67F
MADISON        CLOUDY    66  63  88 NW5       29.68F
WILLMAR        FAIR      66  64  94 CALM      29.66F
$$
MNZ033>034-036-042>043-049>051-058-059-010600-
   Central Minnesota

CITY           SKY/WX    TMP DP  RH WIND       PRES   REMARKS
ST CLOUD       LGT RAIN  68  65  90 CALM      29.63F
SAUK CENTRE    CLOUDY    66  63  88 W5        29.66F
PAYNESVILLE    RAIN      64  64 100 CALM      29.65F
AITKIN         CLOUDY    66  61  82 CALM      29.63R HAZE
PINE RIVER     CLOUDY    64  64 100 CALM      29.67F
BRAINERD       LGT RAIN  64  64 100 S5        29.64F
STAPLES        CLOUDY    64  63  94 CALM      29.65S
LONG PRAIRIE   CLOUDY    64  63  94 SW3       29.66S
LITTLE FALLS   LGT RAIN  64  63  94 CALM      29.65S
LITCHFIELD     DRIZZLE   66  66 100 CALM      29.65F
BUFFALO        LGT RAIN  65  64  93 W3        29.64F
MAPLE LAKE     LGT RAIN  66  65  97 W3        29.65F
$$
MNZ037-044-045-052-053-010600-
   East Central Minnesota

CITY           SKY/WX    TMP DP  RH WIND       PRES   REMARKS
PRINCETON      CLOUDY    66  64  94 SE7       29.64F
MORA           CLOUDY    63  61  94 CALM      29.65F
CAMBRIDGE      LGT RAIN  66  59  77 CALM      29.62F
RUSH CITY      CLOUDY    65  63  93 CALM      29.64F
MOOSE LAKE     LGT RAIN  64  63  94 CALM      29.62F
HINCKLEY       LGT RAIN  64  64 100 SW3       29.65F
CLOQUET        CLOUDY    63  61  94 W3        29.63F FOG
MCGREGOR       CLOUDY    64  63  94 CALM      29.65R
$$
MNZ071>073-080-081-089-090-097-098-010600-
   Southwest Minnesota

CITY           SKY/WX    TMP DP  RH WIND       PRES   REMARKS
MONTEVIDEO     CLOUDY    66  64  94 NW6       29.68S
GRANITE FALLS  CLOUDY    65  64  98 SW5       29.69R
CANBY          CLOUDY    64  63  94 CALM      29.70R
MARSHALL       CLOUDY    64  63  94 W5        29.68R
REDWOOD FALLS  CLOUDY    66  65  96 S8        29.66F
OLIVIA         CLOUDY    68  64  88 CALM      29.65F
PIPESTONE      MOCLDY    64  61  88 CALM      29.70S
WINDOM         CLOUDY    66  64  94 SW3       29.69R
WORTHINGTON    CLOUDY    64  63  94 NW5       29.68F
JACKSON        CLOUDY    64  63  94 S6        29.68S
TRACY          CLOUDY    66  64  94 CALM      29.69F
SLAYTON        CLOUDY    64  64 100 CALM      29.71F
$$
MNZ065>067-074>077-082>085-091>093-010600-
   South Central Minnesota

CITY           SKY/WX    TMP DP  RH WIND       PRES   REMARKS
MANKATO        CLOUDY    66  61  82 SW10G18   29.68R
NEW ULM        CLOUDY    66  66 100 S7        29.68R
ST JAMES       CLOUDY    66  64  94 CALM      29.69R
FAIRMONT       CLOUDY    63  59  88 S3        29.68S
GLENCOE        CLOUDY    66  63  90 CALM      29.64R
FARIBAULT      RAIN      68  63  83 SW6       29.69R
OWATONNA       LGT RAIN  66  63  88 SW16G23   29.70R
WASECA         CLOUDY    63  59  88 S12G17    29.72R
ALBERT LEA     CLOUDY    63  63 100 S7        29.71F
$$
MNZ078>079-086>088-094>096-010600-
   Southeast Minnesota

CITY           SKY/WX    TMP DP  RH WIND       PRES   REMARKS
ROCHESTER      RAIN      64  62  93 S13G20    29.71F FOG
RED WING       RAIN      68  66  94 SE7       29.62F
STANTON        RAIN      67  64  92 E3        29.61F
DODGE CENTER   RAIN      66  64  94 S10       29.69S
WINONA         RAIN      70  64  83 SW13G21   29.70R
AUSTIN         CLOUDY    63  63 100 S14G21    29.74R
PRESTON        RAIN      63  63 100 S6        29.77S
$$
ABBREVIATIONS USED IN REMARKS
   TC - TEMPERATURES IN CELSIUS
  WCI - WIND CHILL INDEX
   HX - HEAT INDEX
  VSB - VISIBILITY
$$


USA.gov is the U.S. government's official web portal to all federal, state and local government web resources and services.